EW2348 Weather Reports


Display with metric or nautical units.
time (UTC)temp
F
wind
direction
speed
MPH
gust
MPH
rain 1hr
in
rain 24hr
in
rain mn
in
humidity
%
barometer
mb
20141122233114 61 90 4.0 6.0 0.00 0.02 0.02 48 1018.8
20141122231114 61 90 4.0 6.0 0.00 0.02 0.02 48 1019.0
20141122230114 61 90 4.0 6.0 0.00 0.02 0.02 48 1018.8
20141122223113 61 90 4.0 6.0 0.00 0.02 0.02 48 1018.8
20141122222114 61 90 4.0 6.0 0.00 0.02 0.02 48 1018.9
20141122221114 61 90 4.0 6.0 0.00 0.02 0.02 48 1019.1
20141122220113 61 90 4.0 6.0 0.00 0.02 0.02 48 1019.1
20141122215113 61 90 4.0 6.0 0.00 0.02 0.02 48 1019.2
20141122214113 61 90 4.0 6.0 0.00 0.02 0.02 48 1019.3
20141122213113 61 90 4.0 6.0 0.00 0.02 0.02 48 1019.5
20141122212113 61 90 4.0 6.0 0.00 0.02 0.02 48 1019.6
20141122211112 61 90 4.0 6.0 0.00 0.02 0.02 48 1019.7
20141122204112 61 90 4.0 6.0 0.00 0.02 0.02 48 1020.0
20141122203112 61 90 4.0 6.0 0.00 0.02 0.02 48 1019.8
20141122202112 61 90 4.0 6.0 0.00 0.02 0.02 48 1020.0
20141122201112 61 90 4.0 6.0 0.00 0.02 0.02 48 1020.0
20141122200112 61 90 4.0 6.0 0.00 0.02 0.02 48 1020.0
20141122194112 61 90 4.0 6.0 0.00 0.02 0.02 48 1020.3
20141122193111 61 90 4.0 6.0 0.00 0.02 0.02 48 1020.4
20141122192111 61 90 4.0 6.0 0.00 0.02 0.02 48 1020.5
20141122190111 61 132 4.0 115.0 0.00 0.02 0.02 48 1020.8
20141122184111 59 136 8.0 13.0 0.00 0.02 0.02 48 1021.3
20141122183111 59 136 8.0 13.0 0.00 0.02 0.02 48 1021.3
20141122182110 59 136 8.0 13.0 0.00 0.02 0.02 48 1021.5
20141122181111 59 136 8.0 13.0 0.00 0.02 0.02 48 1021.6
20141122180111 59 136 8.0 13.0 0.00 0.02 0.02 48 1021.7
20141122174110 55 135 5.0 8.0 0.01 0.02 0.02 53 1022.1
20141122173111 55 135 5.0 8.0 0.01 0.02 0.02 53 1022.1
20141122172110 55 135 5.0 8.0 0.00 0.02 0.02 53 1022.4
20141122171110 55 135 5.0 8.0 0.00 0.02 0.02 53 1022.7
20141122165110 52 135 6.0 8.0 0.00 0.01 0.01 56 1023.1
20141122162110 50 315 103.0 9.0 0.09 0.11 0.11 59 1023.7
20141122161110 50 315 103.0 9.0 0.09 0.11 0.11 59 1024.0
20141122154108 45 135 6.0 11.0 0.00 0.01 0.01 66 1024.3
20141122153109 45 135 6.0 11.0 0.00 0.01 0.01 66 1024.4
20141122152109 43 135 6.0 8.0 0.00 0.01 0.01 69 1024.8
20141122151109 43 135 6.0 8.0 0.00 0.01 0.01 69 1024.7
20141122145109 26 46 103.0 8.0 0.85 0.86 0.01 10 1024.8
20141122142109 39 16 4.0 100.0 0.01 0.01 0.01 76 1024.8
20141122141110 39 336 4.0 100.0 0.01 0.01 0.01 76 1024.8
20141122135108 37 135 5.0 7.0 0.01 0.01 0.01 79 1024.8
20141122134108 36 92 3.0 6.0 0.00 0.00 0.00 82 1024.8
20141122132107 35 95 4.0 7.0 0.37 0.00 0.00 82 1024.8
20141122131108 35 88 4.0 7.0 0.37 0.00 0.00 82 1024.9
20141122125107 34 53 54.0 8.0 0.00 0.00 0.00 83 1024.8
20141122123108 34 120 4.0 8.0 0.00 0.00 0.00 80 1025.0
20141122121107 102 45 4.0 11.0 0.00 0.00 0.00 90 1025.0
20141122120107 102 45 4.0 11.0 0.00 0.00 0.00 90 1024.9
20141122115106 32 90 2.0 3.0 0.00 0.00 0.00 79 1025.2
20141122114107 32 90 2.0 3.0 0.00 0.00 0.00 79 1025.4
20141122112106 32 338 2.0 29.0 0.00 3.83 0.00 10 1025.5
20141122110106 32 338 2.0 29.0 0.00 3.83 0.00 10 1025.5
20141122105107 32 337 2.0 29.0 0.00 3.83 0.00 10 1025.4
20141122104106 32 90 2.0 4.0 0.00 0.00 0.00 10 1025.7
20141122103106 32 90 2.0 4.0 0.00 0.00 0.00 10 1025.6
20141122102106 32 90 2.0 4.0 0.00 0.00 0.00 10 1025.7
20141122101105 32 90 2.0 4.0 0.00 0.00 0.00 10 1025.8
20141122100106 31 315 4.0 5.0 0.00 3.87 0.00 60 1026.0
20141122094105 31 315 4.0 5.0 0.85 3.87 0.00 60 1026.3
20141122093105 31 315 4.0 5.0 0.85 3.87 0.00 60 1026.3
20141122090105 31 125 4.0 5.0 0.85 3.87 0.00 60 1026.1
20141122083105 86 147 101.0 6.0 0.00 0.00 0.00 56 1026.2
20141122080104 29 90 3.0 6.0 0.00 0.00 0.00 60 1026.4
20141122075105 29 2 3.0 6.0 0.00 0.00 0.00 60 1026.7
20141122074104 29 30 3.0 11.0 0.00 0.00 0.00 61 1026.5
20141122073104 29 45 4.0 9.0 0.00 0.00 0.00 60 1026.6
20141122072104 29 90 5.0 9.0 0.00 0.00 0.00 58 1026.8
20141122071104 29 88 5.0 10.0 0.00 0.00 0.00 58 1026.9
20141122070103 29 1 4.0 9.0 0.00 0.00 0.00 59 1026.6
20141122065103 28 135 3.0 6.0 0.00 0.00 0.00 58 1026.7
20141122064103 28 101 3.0 8.0 0.00 0.00 0.00 58 1026.7
20141122063103 28 26 2.0 8.0 0.00 0.00 0.00 57 1026.9
20141122062103 31 129 2.0 30.0 0.00 0.00 0.00 58 1027.2
20141122061103 28 133 148.0 30.0 0.00 0.00 0.00 57 1027.3
20141122060103 28 153 100.0 34.0 0.00 0.00 0.00 97 1027.4
20141122054103 37 90 2.0 18.0 0.00 0.00 0.00 63 1027.8
20141122053103 37 90 2.0 18.0 0.00 0.00 0.00 63 1027.8
20141122051103 27 90 2.0 3.0 0.00 0.00 0.00 57 1028.2
20141122050103 27 111 2.0 6.0 0.00 0.00 0.00 57 1028.2
20141122045102 27 135 2.0 4.0 0.00 0.00 0.00 56 1028.3
20141122041102 27 90 2.0 5.0 0.00 0.00 0.00 58 1028.1
20141122040102 27 270 1.0 3.0 0.00 0.00 0.00 25 1028.4
20141122033101 -19 314 2.0 4.0 1.20 1.20 0.00 55 1028.9
20141122032101 -19 314 2.0 4.0 1.20 1.20 0.00 55 1029.2
20141122031101 -19 314 2.0 4.0 1.20 1.20 0.00 55 1029.1
20141122030101 28 314 0.0 2.0 0.00 0.00 0.00 52 1029.1
20141122025101 28 314 0.0 2.0 0.00 0.00 0.00 52 1029.1
20141122024101 28 314 0.0 2.0 0.00 0.00 0.00 52 1029.2
20141122022100 28 314 0.0 2.0 0.00 0.00 0.00 52 1029.4
20141122020100 28 342 0.0 2.0 0.00 0.00 0.00 52 1029.6
20141122013101 28 89 2.0 3.0 0.00 0.00 0.00 51 1029.4
20141122012100 28 321 1.0 2.0 0.00 0.00 0.00 52 1029.5
20141122011100 28 358 0.0 4.0 0.00 0.00 0.00 52 1029.5
20141122003100 28 316 1.0 2.0 0.00 0.00 0.00 51 1029.9
20141122002100 28 324 0.0 2.0 0.00 0.00 0.00 51 1030.0
20141122001059 29 333 1.0 3.0 0.00 0.00 0.00 51 1030.1
20141122000059 29 322 2.0 3.0 0.00 0.00 0.00 50 1030.3
20141121235059 29 345 0.0 2.0 0.00 0.00 0.00 49 1030.3